SCP
0 0 0 0 0 0 0 0 0 0 0 0 0 0 0 0 0 0 0 0 0 0 0 0 0 0 0 0 0 0 0 0 0 0 0 0 0 0
0 0 0 0 0 0 0 0 0 0 0 0 0 0 0 0 0 0 0 0 0 0 0 0 0 0 0 0 0 0 0 0 0 0 0 0 0 0
0 0 0 0 0 0 0 0 0 0 0 0 0 0 0 0 0 0 0 0 0 0 0 0 0 0 0 0 0 0 0 0 0 0 0 0 0 0
0 0 0 0 0 0 0 0 0 0 0 0 0 0 0 0 0 0 0 0 0 0 0 0 0 0 0 0 0 0 0 0 0 0 0 0 0 0
0 0 0 0 0 0 0 0 0 0 0 0 0 0 0 0 0 0 0 0 0 0 0 0 0 0 0 0 0 0 0 0 0 0 0 0 0 0
0 0 0 0 0 0 0 0 0 0 0 0 0 0 0 0 0 0 0 0 0 0 0 0 0 0 0 0 0 0 0 0 0 0 0 0 0 0
0 0 0 0 0 0 0 0 0 0 0 0 0 0 0 0 0 0 0 0 0 0 0 0 0 0 0 0 0 0 0 0 0 0 0 0 0 0
0 0 0 0 0 0 0 0 0 0 0 0 0 0 0 0 0 0 0 0 0 0 0 0 0 0 0 0 0 0 0 0 0 0 0 0 0 0
0 0 0 0 0 0 0 0 0 0 0 0 0 0 0 0 0 0 0 0 0 0 0 0 0 0 0 0 0 0 0 0 0 0 0 0 0 0
0 0 0 0 0 0 0 0 0 0 0 0 0 0 0 0 0 0 0 0 0 0 0 0 0 0 0 0 0 0 0 0 0 0 0 0 0 0
0 0 0 0 0 0 0 0 0 0 0 0 0 0 0 0 0 0 0 0 0 0 0 0 0 -0 -0 0 0 0 0 0 0 0 0 0 0 0
0 0 0 0 0 0 0 0 0 0 0 0 0 0 0 0 0 0 0 0 0 0 0 0 0 -0 0 0 0 0 0 0 0 0 0 0 0 0
0 0 0 0 0 0 0 0 0 0 0 0 0 0 0 0 0 0 0 0 0 0 0 0 0 0 0 0 0 0 0 0 0 0 0 0 0 0
0 0 0 0 0 0 0 0 0 0 0 0 0 0 0 0 0 0 0 0 0 0 0 0 0 0 0 0 0 0 0 0 0 0 0 0 0 0
0 0 0 0 0 0 0 0 0 0 0 0 0 0 0 0 0 0 0 0 0 0 0 0 0 0 0 0 0 0 0 0 0 0 0 0 0 0
0 0 0 0 0 0 0 0 0 0 0 0 0 0 0 0 0 0 0 0 0 0 0 0 0 0 0 0 0 0 0 0 0 0 0 0 0 0
0 0 0 0 0 0 0 0 0 0 0 0 0 0 0 0 0 0 0 0 0 0 0 0 0 0 0 0 0 0 0 0 0 0 0 0 0 0
0 0 0 0 0 0 0 0 0 0 0 0 0 0 0 0 0 0 0 0 0 0 0 0 0 0 0 0 0 0 0 0 0 0 0 0 0 0
0 0 0 0 0 0 0 0 0 0 0 0 0 0 0 0 0 0 0 0 0 0 0 0 0 0 0 0 0 0 0 0 0 0 0 0 0 0
0 0 0 0 0 0 0 0 0 0 0 0 0 0 0 0 0 0 0 0 0 0 0 0 0 0 0 0 0 0 0 0 0 0 0 0 0 0
0 0 0 0 0 0 0 0 0 0 0 0 0 0 0 0 0 0 0 0 0 0 0 0 0 0 0 0 0 0 0 0 0 0 0 0 0 0
0 0 0 0 0 0 0 0 0 0 0 0 0 0 0 0 0 0 0 0 0 0 0 0 0 0 0 0 0 0 0 0 0 0 0 0 0 0
0 0 0 0 0 0 0 0 0 0 0 0 0 0 0 0 0 0 0 0 0 0 0 0 0 0 0 0 0 0 0 0 0 0 0 0 0 0
Wind_Speed
3 3 3 2 2 2 2 3 4 3 4 4 3 3 2 2 4 3 3 5 6 6 5 4 4 4 4 4 4 4 4 5 6 6 7 7 7 8
2 3 3 2 2 2 2 2 2 3 4 3 3 2 2 2 5 3 3 5 6 6 6 5 5 5 5 5 4 5 5 6 7 8 8 8 9 9
2 3 3 2 2 2 2 2 2 2 3 2 1 1 2 3 2 2 2 3 3 6 6 6 6 6 6 6 6 6 6 7 8 9 9 9 9 9
3 3 4 2 3 2 2 2 2 2 2 3 2 1 3 3 2 2 2 2 2 5 6 6 7 6 6 6 6 6 7 7 7 8 9 9 9 9
4 4 4 4 4 3 3 3 2 2 1 2 2 1 1 1 1 2 2 1 2 3 5 6 6 6 6 7 7 7 7 7 7 8 8 9 9 10
3 3 4 4 5 4 3 3 3 2 2 2 2 1 1 1 1 1 2 1 2 2 3 4 5 6 7 7 8 7 8 8 8 8 8 9 9 10
2 3 3 3 4 4 4 4 3 3 2 2 2 1 2 2 2 2 2 1 2 2 1 2 2 2 3 6 6 8 8 8 8 8 9 9 9 10
2 2 2 3 4 5 5 5 5 5 4 3 3 3 4 3 2 2 2 1 3 2 1 2 1 3 3 3 6 8 9 9 8 8 9 9 9 10
2 2 2 2 2 2 3 3 4 5 6 5 5 5 4 4 4 3 3 3 4 2 2 3 2 4 3 4 9 9 9 9 8 8 8 9 10 10
2 3 3 2 2 3 2 2 3 3 4 4 4 5 4 4 5 5 4 2 1 1 2 3 2 3 3 3 8 9 9 8 9 9 9 9 9 9
2 2 2 3 3 3 3 3 3 3 3 4 4 4 4 4 3 2 2 2 3 3 2 2 2 2 3 3 5 8 8 8 8 9 9 9 9 8
2 2 3 3 3 3 3 3 4 4 2 2 2 3 3 3 5 4 4 3 2 3 3 3 2 1 2 2 2 3 4 7 9 10 10 9 8 4
2 2 2 4 4 4 4 3 4 3 2 3 2 1 1 1 2 2 3 3 3 4 3 2 2 2 3 3 3 3 3 3 3 5 7 8 8 6
2 2 2 3 4 4 3 3 3 2 1 1 2 2 2 2 2 2 2 2 3 4 4 3 3 3 3 3 4 2 2 3 3 3 3 5 7 9
2 3 3 3 4 3 3 3 1 1 1 2 2 3 2 2 1 1 1 1 1 2 2 3 3 3 3 4 3 3 2 2 3 3 3 3 3 3
2 2 3 2 2 2 2 1 1 2 2 2 2 2 1 1 1 1 1 1 1 2 1 2 3 4 3 4 4 4 3 3 2 3 3 3 3 3
2 1 1 1 1 1 1 1 1 1 1 1 1 1 1 1 1 1 1 1 2 2 2 1 1 2 3 4 4 4 3 3 3 3 2 4 4 4
1 1 1 1 2 2 2 2 1 1 1 1 1 2 2 2 2 1 1 2 2 3 3 2 1 1 2 3 5 4 3 3 3 3 2 3 5 4
1 1 2 2 2 2 2 2 2 2 1 1 2 2 2 2 2 2 2 2 2 3 2 2 2 2 2 4 3 4 3 2 2 3 3 4 5 5
1 1 2 2 2 2 2 2 2 1 1 1 2 2 2 2 2 2 3 3 2 2 2 2 3 3 4 4 3 3 4 4 3 3 4 4 5 7
1 1 1 1 1 2 2 2 2 2 2 2 2 2 2 2 2 2 2 3 3 2 3 3 3 3 2 1 2 3 3 4 5 4 3 3 4 4
1 1 1 1 1 1 1 2 2 2 2 2 2 2 2 2 2 3 2 2 2 3 3 3 2 1 1 3 4 4 4 4 4 7 7 7 4 4
2 2 2 2 2 2 2 2 2 2 2 2 2 2 2 2 2 2 2 2 2 3 3 3 2 2 2 3 3 3 4 4 3 3 4 6 8 10
Wind_Direction
213 212 212 210 199 191 180 180 174 210 240 238 240 236 223 218 224 212 220 232 228 234 242 245 234 231 245 247 250 228 222 220 224 232 238 243 250 256
214 212 220 215 206 196 199 203 197 198 232 232 228 241 227 230 224 213 226 229 234 236 239 239 231 227 228 236 243 240 232 227 229 236 242 246 251 257
222 218 226 213 204 206 205 204 207 197 230 253 238 246 214 227 233 218 223 222 234 235 236 235 232 230 231 235 238 242 236 237 238 240 245 250 254 258
221 222 229 217 216 213 208 217 218 211 208 239 250 240 233 225 220 222 232 225 226 233 234 240 240 236 233 234 237 242 240 239 243 246 248 252 255 259
217 220 224 214 222 222 217 218 220 222 210 209 239 249 252 241 226 256 240 235 242 234 236 241 243 247 245 240 240 242 241 240 243 247 249 252 256 261
223 223 222 218 221 215 217 219 210 211 208 198 219 239 246 240 184 230 264 245 249 252 248 247 250 254 252 245 243 244 245 248 247 250 253 254 256 258
232 230 230 234 232 220 219 213 201 206 205 211 222 226 226 213 214 205 234 259 276 250 244 251 253 256 253 254 251 246 247 248 246 250 255 258 259 259
231 242 239 233 240 235 230 218 205 204 208 210 222 222 230 224 206 202 197 210 267 247 204 255 227 248 252 246 253 253 251 251 249 251 257 261 265 265
224 231 244 247 235 227 231 232 230 229 216 210 220 226 223 214 198 206 208 214 232 222 198 254 235 249 251 253 259 258 253 251 253 256 259 263 264 265
228 224 223 235 231 222 218 233 246 250 238 227 226 229 225 210 203 207 209 223 264 248 196 238 243 248 262 259 260 257 252 251 254 257 260 264 265 267
238 229 222 228 246 235 218 229 253 270 268 251 248 244 237 226 205 174 183 195 248 251 208 213 238 267 275 262 258 258 253 254 256 260 264 267 269 272
250 249 249 252 249 232 222 226 239 254 254 260 258 257 240 228 216 206 197 203 225 241 208 193 213 221 279 264 251 252 250 258 262 262 264 266 268 267
241 249 257 268 261 247 246 239 248 254 235 232 237 244 240 226 220 220 211 205 215 234 209 187 209 212 231 274 277 253 238 244 252 260 263 262 266 269
240 245 254 264 261 260 258 271 277 279 225 216 221 233 236 237 234 224 223 230 233 234 214 197 209 214 227 260 269 260 243 240 236 245 247 263 270 275
250 257 267 269 264 253 258 263 254 226 218 225 229 236 236 229 220 230 245 248 273 267 229 213 212 223 226 239 253 252 265 255 232 230 242 251 254 259
271 277 280 275 268 276 268 241 226 229 233 239 246 240 232 222 226 225 231 237 262 287 274 230 220 215 231 245 248 254 241 242 240 244 255 265 262 251
245 261 277 257 248 257 257 252 245 250 262 257 242 231 224 229 246 238 228 233 236 247 266 277 258 244 238 232 248 248 246 250 247 246 250 272 271 257
233 220 236 239 240 239 241 249 250 244 247 245 233 224 224 227 236 241 237 233 245 251 251 252 283 326 320 281 231 234 237 245 249 245 237 260 277 272
223 231 239 241 247 244 246 248 254 251 241 239 237 231 230 231 229 231 226 232 242 246 246 231 216 218 266 280 275 217 218 248 259 262 253 249 265 273
282 255 255 255 253 251 252 259 258 248 240 241 241 234 227 226 228 229 227 226 233 242 249 239 222 219 230 248 266 270 238 232 238 257 267 270 268 274
312 297 280 268 267 262 257 252 249 251 248 240 234 233 232 228 233 236 236 239 245 236 241 250 245 249 241 247 271 279 274 247 244 246 252 269 278 278
309 300 295 280 267 259 254 245 241 240 240 241 234 232 233 234 236 237 233 234 241 242 251 261 254 236 217 235 255 269 283 293 280 274 264 251 247 251
310 298 290 281 269 256 250 245 245 242 235 228 225 228 228 235 242 242 241 240 240 244 250 259 260 245 240 238 251 264 276 288 294 298 289 279 273 272